EW5461 Weather Reports


time (UTC)temp
C
wind
direction
speed
KPH
gust
KPH
rain 1hr
cm
rain 24hr
cm
rain mn
cm
humidity
%
barometer
mb
20260506113046 11 19 12.9 24.1 0.00 0.00 0.00 78 1011.3
20260506111543 12 316 14.5 24.1 0.00 0.00 0.00 77 1011.2
20260506110039 12 360 8.0 19.3 0.00 0.00 0.00 78 1010.7
20260506104538 12 347 12.9 24.1 0.00 0.00 0.00 77 1010.5
20260506103035 12 346 14.5 24.1 0.00 0.00 0.00 77 1010.4
20260506101533 12 350 11.3 19.3 0.00 0.00 0.00 79 1010.1
20260506100029 13 53 11.3 22.5 0.00 0.00 0.00 78 1009.8
20260506094528 13 18 11.3 19.3 0.00 0.00 0.00 78 1009.3
20260506093030 13 355 6.4 20.9 0.00 0.00 0.00 79 1009.4
20260506091524 13 355 6.4 14.5 0.00 0.00 0.00 79 1009.3
20260506090023 13 19 11.3 20.9 0.00 0.00 0.00 79 1009.2
20260506084519 13 350 11.3 17.7 0.00 0.00 0.00 79 1009.2
20260506083017 13 338 11.3 20.9 0.00 0.00 0.00 78 1008.9
20260506081513 13 350 12.9 24.1 0.00 0.00 0.00 79 1008.9
20260506073006 13 12 6.4 14.5 0.00 0.00 0.00 80 1008.7
20260506071505 13 9 4.8 9.7 0.00 0.00 0.00 81 1008.2
20260506061552 15 355 8.0 16.1 0.00 0.00 0.00 81 1008.4
20260506044544 16 350 9.7 19.3 0.00 0.00 0.00 79 1008.3
20260506043036 16 22 9.7 20.9 0.00 0.00 0.00 79 1008.2
20260506041533 16 44 8.0 25.7 0.00 0.00 0.00 79 1008.1
20260506040050 16 360 12.9 22.5 0.00 0.00 0.00 79 1008.2
20260506034527 17 360 14.5 22.5 0.00 0.00 0.00 78 1007.9
20260506033023 17 345 12.9 20.9 0.00 0.00 0.00 77 1007.5
20260506031536 18 345 8.0 17.7 0.00 0.00 0.00 77 1007.1
20260506030016 18 350 12.9 19.3 0.00 0.00 0.00 76 1006.7
20260506024519 18 355 11.3 20.9 0.00 0.00 0.00 75 1006.6
20260506023011 18 351 9.7 19.3 0.00 0.00 0.00 74 1006.3
20260506021509 19 15 9.7 19.3 0.00 0.00 0.00 74 1006.1
20260506020005 19 344 11.3 19.3 0.00 0.00 0.00 74 1005.8
20260506014501 20 12 9.7 19.3 0.00 0.00 0.00 74 1005.4
20260506013058 20 9 16.1 22.5 0.00 0.00 0.00 72 1005.0
20260506011558 20 16 9.7 20.9 0.00 0.00 0.00 72 1004.5
20260506010057 21 355 12.9 24.1 0.00 0.00 0.00 71 1004.3
20260506004551 21 355 12.9 19.3 0.00 0.00 0.00 71 1003.9
20260506003049 22 11 9.7 20.9 0.00 0.00 0.00 70 1003.9
20260506001547 22 5 17.7 25.7 0.00 0.00 0.00 68 1003.6
20260506000047 23 324 16.1 25.7 0.00 0.00 0.00 67 1003.4
20260505234555 23 350 14.5 24.1 0.00 0.00 0.00 66 1003.3
20260505233051 24 333 14.5 25.7 0.00 0.00 0.00 65 1003.2
20260505231551 25 360 12.9 25.7 0.00 0.00 0.00 64 1003.2
20260505230043 26 27 12.9 24.1 0.00 0.00 0.00 63 1002.8
20260505224543 26 297 12.9 22.5 0.00 0.00 0.00 63 1002.9
20260505223050 27 15 9.7 29.0 0.00 0.00 0.00 62 1002.4
20260505221540 28 320 11.3 20.9 0.00 0.00 0.00 61 1002.3
20260505220042 28 16 14.5 25.7 0.00 0.00 0.00 52 1002.2
20260505214547 28 360 14.5 20.9 0.00 0.00 0.00 52 1002.1
20260505213036 29 334 12.9 27.4 0.00 0.00 0.00 50 1002.3
20260505211534 30 360 14.5 29.0 0.00 0.00 0.00 49 1002.1
20260505210034 31 223 6.4 16.1 0.00 0.00 0.00 55 1002.3
20260505204535 30 252 9.7 16.1 0.00 0.00 0.00 54 1002.4
20260505203032 30 285 9.7 19.3 0.00 0.00 0.00 54 1002.5
20260505201528 30 175 6.4 16.1 0.00 0.00 0.00 53 1002.6
20260505200037 30 319 6.4 17.7 0.00 0.00 0.00 55 1002.8
20260505194524 30 279 6.4 19.3 0.00 0.00 0.00 57 1003.0
20260505193022 30 230 4.8 19.3 0.00 0.00 0.00 59 1002.9
20260505191519 30 208 11.3 24.1 0.00 0.00 0.00 59 1002.9
20260505190017 29 232 11.3 25.7 0.00 0.00 0.00 61 1002.9
20260505184513 28 238 11.3 22.5 0.00 0.00 0.00 64 1003.0
20260505183012 28 198 6.4 25.7 0.00 0.00 0.00 66 1003.1
20260505181505 27 186 11.3 25.7 0.00 0.00 0.00 68 1003.2
20260505180006 27 248 11.3 24.1 0.00 0.00 0.00 68 1003.2
20260505174501 27 193 9.7 24.1 0.00 0.00 0.00 71 1003.3
20260505173003 27 197 8.0 25.7 0.00 0.00 0.00 70 1003.4
20260505171605 27 167 12.9 25.7 0.00 0.00 0.00 69 1003.3
20260505170057 27 194 9.7 22.5 0.00 0.00 0.00 71 1003.3
20260505164616 26 212 9.7 30.6 0.00 0.00 0.00 71 1003.3
20260505163101 26 160 14.5 35.4 0.00 0.00 0.00 73 1003.3
20260505161550 25 178 11.3 30.6 0.00 0.00 0.00 74 1003.2
20260505153041 24 200 11.3 24.1 0.00 0.00 0.00 78 1002.9
20260505151537 23 205 12.9 25.7 0.00 0.00 0.00 80 1002.9
20260505124535 21 168 12.9 27.4 0.00 0.00 0.00 86 1002.7
20260505123029 21 137 11.3 22.5 0.00 0.00 0.00 86 1002.4
20260505121528 21 177 12.9 29.0 0.00 0.00 0.00 86 1002.2
20260505120027 20 171 12.9 24.1 0.00 0.00 0.00 86 1002.2
20260505114527 20 170 11.3 22.5 0.00 0.00 0.00 87 1002.0